Time,TemperatureF,DewpointF,PressureIn,WindDirection,WindDirectionDegrees,WindSpeedMPH,WindSpeedGustMPH,Humidity,HourlyPrecipIn,Conditions,Clouds,dailyrainin,SolarRadiationWatts/m^2,SoftwareType,DateUTC
2013-01-07 00:12:00,23.0,2.0,-100.00,ESE,123,7.0,9.0,39,-99.99,,,0.00,0.000000,,2013-01-07 07:12:00,
2013-01-07 00:22:00,23.0,2.0,-100.00,ESE,123,7.0,9.0,39,-99.99,,,0.00,0.000000,,2013-01-07 07:22:00,
2013-01-07 00:32:00,23.0,2.0,-100.00,ESE,123,7.0,9.0,39,-99.99,,,0.00,0.000000,,2013-01-07 07:32:00,
2013-01-07 01:12:00,23.0,4.0,-100.00,SE,146,6.0,11.0,44,-99.99,,,-99.99,0.000000,,2013-01-07 08:12:00,
2013-01-07 02:22:00,20.0,4.0,-100.00,SE,130,6.0,10.0,48,-99.99,,,0.00,0.000000,,2013-01-07 09:22:00,
2013-01-07 02:32:00,20.0,4.0,-100.00,SE,130,6.0,10.0,48,-99.99,,,0.00,0.000000,,2013-01-07 09:32:00,
2013-01-07 03:12:00,21.0,4.0,-100.00,SSE,153,8.0,10.0,47,-99.99,,,0.00,0.000000,,2013-01-07 10:12:00,
2013-01-07 03:22:00,21.0,4.0,-100.00,SSE,153,8.0,10.0,47,-99.99,,,0.00,0.000000,,2013-01-07 10:22:00,
2013-01-07 04:12:00,20.0,3.0,-100.00,SE,131,7.0,10.0,46,-99.99,,,0.00,0.000000,,2013-01-07 11:12:00,
2013-01-07 05:12:00,20.0,3.0,-100.00,ESE,108,3.0,9.0,46,-99.99,,,0.00,0.000000,,2013-01-07 12:12:00,
2013-01-07 06:23:00,20.0,2.0,-100.00,ENE,73,6.0,8.0,44,-99.99,,,0.00,0.000000,,2013-01-07 13:23:00,
2013-01-07 06:33:00,20.0,2.0,-100.00,ENE,73,6.0,8.0,44,-99.99,,,0.00,0.000000,,2013-01-07 13:33:00,
2013-01-07 08:12:00,17.0,1.0,-100.00,SE,140,9.0,11.0,48,-99.99,,,0.00,3.000000,,2013-01-07 15:12:00,
2013-01-07 08:22:00,17.0,1.0,-100.00,SE,140,9.0,11.0,48,-99.99,,,0.00,3.000000,,2013-01-07 15:22:00,
2013-01-07 09:12:00,22.0,2.0,-100.00,SE,141,7.0,11.0,42,-99.99,,,0.00,99.000000,,2013-01-07 16:12:00,
2013-01-07 09:22:00,22.0,2.0,-100.00,SE,141,7.0,11.0,42,-99.99,,,0.00,99.000000,,2013-01-07 16:22:00,
2013-01-07 10:12:00,26.0,2.0,-100.00,SSE,157,8.0,12.0,35,-99.99,,,0.00,281.000000,,2013-01-07 17:12:00,
2013-01-07 11:12:00,28.0,5.0,-100.00,WNW,288,3.0,11.0,36,-99.99,,,0.00,88.000000,,2013-01-07 18:12:00,
2013-01-07 11:23:00,28.0,5.0,-100.00,WNW,288,3.0,11.0,36,-99.99,,,0.00,88.000000,,2013-01-07 18:23:00,
2013-01-07 12:12:00,28.0,1.0,-100.00,NW,318,9.0,11.0,31,-99.99,,,-99.99,419.000000,,2013-01-07 19:12:00,
2013-01-07 12:22:00,28.0,1.0,-100.00,NW,318,9.0,11.0,31,-99.99,,,-99.99,419.000000,,2013-01-07 19:22:00,
2013-01-07 12:33:00,28.0,1.0,-100.00,NW,318,9.0,11.0,31,-99.99,,,-99.99,419.000000,,2013-01-07 19:33:00,
2013-01-07 13:12:00,35.0,7.0,-100.00,WNW,293,2.0,11.0,30,-99.99,,,0.00,564.000000,,2013-01-07 20:12:00,
2013-01-07 13:22:00,35.0,7.0,-100.00,WNW,293,2.0,11.0,30,-99.99,,,0.00,564.000000,,2013-01-07 20:22:00,
2013-01-07 13:33:00,35.0,7.0,-100.00,WNW,293,2.0,11.0,30,-99.99,,,0.00,564.000000,,2013-01-07 20:33:00,
2013-01-07 14:12:00,38.0,7.0,-100.00,NW,312,1.0,-999.0,27,-99.99,,,0.00,,,2013-01-07 21:12:00,
2013-01-07 14:22:00,38.0,7.0,-100.00,NW,312,1.0,-999.0,27,-99.99,,,0.00,,,2013-01-07 21:22:00,
2013-01-07 14:32:00,38.0,7.0,-100.00,NW,312,1.0,-999.0,27,-99.99,,,0.00,,,2013-01-07 21:32:00,
2013-01-07 15:12:00,36.0,4.0,-100.00,West,277,3.0,8.0,26,0.00,,,0.00,396.000000,,2013-01-07 22:12:00,
2013-01-07 15:22:00,36.0,4.0,-100.00,West,277,3.0,8.0,26,0.00,,,0.00,396.000000,,2013-01-07 22:22:00,
2013-01-07 15:33:00,36.0,4.0,-100.00,West,277,3.0,8.0,26,0.00,,,0.00,396.000000,,2013-01-07 22:33:00,
2013-01-07 15:42:00,36.0,4.0,-100.00,West,277,3.0,8.0,26,0.00,,,0.00,396.000000,,2013-01-07 22:42:00,
2013-01-07 16:22:00,36.0,0.0,-100.00,WNW,302,4.0,6.0,21,0.00,,,0.00,252.000000,,2013-01-07 23:22:00,
2013-01-07 16:32:00,36.0,0.0,-100.00,WNW,302,4.0,6.0,21,0.00,,,0.00,252.000000,,2013-01-07 23:32:00,
2013-01-07 16:42:00,36.0,0.0,-100.00,WNW,302,4.0,6.0,21,0.00,,,0.00,252.000000,,2013-01-07 23:42:00,
2013-01-07 17:22:00,30.0,-4.0,-100.00,NNW,339,4.0,6.0,22,0.00,,,0.00,77.000000,,2013-01-08 00:22:00,
2013-01-07 18:12:00,28.0,1.0,-100.00,South,181,3.0,6.0,30,0.00,,,0.00,4.000000,,2013-01-08 01:12:00,
2013-01-07 18:22:00,28.0,1.0,-100.00,South,181,3.0,6.0,30,0.00,,,0.00,4.000000,,2013-01-08 01:22:00,
2013-01-07 18:32:00,28.0,1.0,-100.00,South,181,3.0,6.0,30,0.00,,,0.00,4.000000,,2013-01-08 01:32:00,
2013-01-07 18:42:00,28.0,1.0,-100.00,South,181,3.0,6.0,30,0.00,,,0.00,4.000000,,2013-01-08 01:42:00,
2013-01-07 19:12:00,26.0,3.0,-100.00,SE,135,9.0,13.0,36,0.00,,,0.00,0.000000,,2013-01-08 02:12:00,
2013-01-07 19:22:00,26.0,3.0,-100.00,SE,135,9.0,13.0,36,0.00,,,0.00,0.000000,,2013-01-08 02:22:00,
2013-01-07 19:32:00,26.0,3.0,-100.00,SE,135,9.0,13.0,36,0.00,,,0.00,0.000000,,2013-01-08 02:32:00,
2013-01-07 20:12:00,25.0,1.0,-100.00,SE,139,7.0,13.0,35,-99.99,,,0.00,0.000000,,2013-01-08 03:12:00,
2013-01-07 20:22:00,25.0,1.0,-100.00,SE,139,7.0,13.0,35,-99.99,,,0.00,0.000000,,2013-01-08 03:22:00,
2013-01-07 20:32:00,25.0,1.0,-100.00,SE,139,7.0,13.0,35,-99.99,,,0.00,0.000000,,2013-01-08 03:32:00,
2013-01-07 21:22:00,24.0,1.0,-100.00,NE,40,2.0,8.0,36,-99.99,,,0.00,0.000000,,2013-01-08 04:22:00,
2013-01-07 22:12:00,23.0,1.0,-100.00,South,176,3.0,7.0,38,-99.99,,,0.00,0.000000,,2013-01-08 05:12:00,
2013-01-07 22:22:00,23.0,1.0,-100.00,South,176,3.0,7.0,38,-99.99,,,0.00,0.000000,,2013-01-08 05:22:00,
2013-01-07 23:12:00,20.0,-1.0,-100.00,SE,128,9.0,12.0,39,-99.99,,,0.00,0.000000,,2013-01-08 06:12:00,
2013-01-07 23:22:00,20.0,-1.0,-100.00,SE,128,9.0,12.0,39,-99.99,,,0.00,0.000000,,2013-01-08 06:22:00,
2013-01-07 23:32:00,20.0,-1.0,-100.00,SE,128,9.0,12.0,39,-99.99,,,0.00,0.000000,,2013-01-08 06:32:00,